Weather History for Gunnison, CO

Change the Weather History Date:

Sunday, November 27, 2011

  Actual Average Record
Temperature  
Mean Temperature 24 °F -  
Max Temperature 42 °F 32 °F 48 °F (2008)
Min Temperature 5 °F 8 °F -5 °F (2003)
Degree Days  
Heating Degree Days 42    
Moisture  
Dew Point 4 °F    
Average Humidity 53    
Maximum Humidity 79    
Minimum Humidity 23    
Precipitation  
Precipitation 0.00 in - - ()
Sea Level Pressure  
Sea Level Pressure 30.57 in    
Wind  
Wind Speed 1 mph (North)    
Max Wind Speed 7 mph    
Max Gust Speed -    
Visibility 10 miles    
Events      
Averages and records for this station are not official NWS values.
T = Trace of Precipitation, MM = Missing Value Source: NWS Daily Summary

Daily Weather History Graph

Daily Weather History Graph

Search for Another Location

Airport:

Trip Planner

Search our weather history database for the weather conditions in past years. The results will help you decide how hot, cold, wet, or windy it might be!

Date:

Astronomy

Nov. 27, 2011 Rise Set
Actual Time 7:02 AM MST 4:48 PM MST
Civil Twilight 6:33 AM MST 5:17 PM MST
Nautical Twilight 6:00 AM MST 5:49 PM MST
Astronomical Twilight 5:28 AM MST 6:21 PM MST
Moon 9:29 AM MST (11/27) 7:30 PM MST (11/27)
Length of Visible Light 10h 44m
Length of Day
9h 46m
Waxing Crescent, 9% of the Moon is Illuminated
Nov 27
Waxing Crescent
Dec 2
First Quarter
Dec 10
Full
Dec 17
Last Quarter
Dec 24
New

Hourly Weather History & Observations

Time (MST) Temp. Windchill Dew Point Humidity Pressure Visibility Wind Dir Wind Speed Gust Speed Precip Events Conditions
12:35 AM 8.6 °F - -2.2 °F 62% 30.62 in 10.0 mi Calm Calm - N/A   Clear
1:15 AM 10.4 °F - -0.4 °F 62% 30.63 in 10.0 mi Calm Calm - N/A   Clear
1:35 AM 10.4 °F - 1.4 °F 67% 30.63 in 10.0 mi Calm Calm - N/A   Clear
1:55 AM 8.6 °F - -0.4 °F 67% 30.63 in 10.0 mi Calm Calm - N/A   Clear
2:15 AM 10.4 °F - 3.2 °F 73% 30.64 in 10.0 mi Calm Calm - N/A   Clear
2:35 AM 8.6 °F - -0.4 °F 67% 30.64 in 10.0 mi Calm Calm - N/A   Clear
2:55 AM 8.6 °F - 1.4 °F 73% 30.64 in 10.0 mi Calm Calm - N/A   Clear
3:35 AM 6.8 °F - -0.4 °F 72% 30.64 in 10.0 mi Calm Calm - N/A   Clear
3:55 AM 8.6 °F - 1.4 °F 73% 30.64 in 10.0 mi Calm Calm - N/A   Clear
4:35 AM 8.6 °F - 1.4 °F 73% 30.64 in 10.0 mi Calm Calm - N/A   Clear
4:55 AM 5.0 °F - -5.8 °F 61% 30.64 in 10.0 mi Calm Calm - N/A   Clear
5:15 AM 5.0 °F - -0.4 °F 78% 30.64 in 10.0 mi Calm Calm - N/A   Clear
5:35 AM 6.8 °F - 1.4 °F 79% 30.64 in 10.0 mi Calm Calm - N/A   Clear
6:15 AM 6.8 °F - 1.4 °F 79% 30.65 in 10.0 mi Calm Calm - N/A   Clear
7:35 AM 5.0 °F - -0.4 °F 78% 30.67 in 10.0 mi Calm Calm - N/A   Clear
8:16 AM 10.4 °F 4.0 °F 1.4 °F 67% 30.67 in 10.0 mi ENE 3.5 mph - N/A   Clear
9:15 AM 15.8 °F - 3.2 °F 58% 30.67 in 10.0 mi Calm Calm - N/A   Clear
10:15 AM 19.4 °F - 3.2 °F 49% 30.66 in 10.0 mi Calm Calm - N/A   Clear
10:55 AM 24.8 °F 20.5 °F 3.2 °F 40% 30.64 in 10.0 mi WNW 3.5 mph - N/A   Clear
11:15 AM 26.6 °F - 3.2 °F 37% 30.63 in 10.0 mi Calm Calm - N/A   Clear
11:55 AM 28.4 °F 24.6 °F 3.2 °F 34% 30.59 in 10.0 mi East 3.5 mph - N/A   Clear
12:15 PM 30.2 °F - 5.0 °F 34% 30.57 in 10.0 mi Calm Calm - N/A   Clear
12:35 PM 32.0 °F - 5.0 °F 32% 30.56 in 10.0 mi Calm Calm - N/A   Clear
12:55 PM 33.8 °F 30.8 °F 3.2 °F 28% 30.55 in 10.0 mi NW 3.5 mph - N/A   Clear
1:16 PM 35.6 °F 32.8 °F 6.8 °F 30% 30.54 in 10.0 mi NNW 3.5 mph - N/A   Clear
1:35 PM 35.6 °F - 6.8 °F 30% 30.53 in 10.0 mi Calm Calm - N/A   Clear
2:15 PM 39.2 °F - 6.8 °F 26% 30.51 in 10.0 mi Calm Calm - N/A   Clear
2:55 PM 39.2 °F - 8.6 °F 28% 30.51 in 10.0 mi Calm Calm - N/A   Clear
3:15 PM 41.0 °F - 8.6 °F 26% 30.51 in 10.0 mi Calm Calm - N/A   Clear
3:35 PM 41.0 °F 39.0 °F 8.6 °F 26% 30.50 in 10.0 mi NNE 3.5 mph - N/A   Clear
3:55 PM 42.8 °F - 6.8 °F 23% 30.50 in 10.0 mi Calm Calm - N/A   Clear
4:35 PM 39.2 °F - 6.8 °F 26% 30.49 in 10.0 mi Calm Calm - N/A   Clear
5:35 PM 32.0 °F 25.6 °F 6.8 °F 35% 30.49 in 10.0 mi North 6.9 mph - N/A   Clear
5:56 PM 30.2 °F 26.7 °F 6.8 °F 37% 30.50 in 10.0 mi North 3.5 mph - N/A   Clear
6:15 PM 28.4 °F 24.6 °F 5.0 °F 37% 30.50 in 10.0 mi North 3.5 mph - N/A   Clear
6:35 PM 26.6 °F 22.6 °F 6.8 °F 43% 30.50 in 10.0 mi ENE 3.5 mph - N/A   Clear
6:55 PM 26.6 °F - 6.8 °F 43% 30.50 in 10.0 mi Calm Calm - N/A   Clear
7:55 PM 21.2 °F - 6.8 °F 54% 30.51 in 10.0 mi Calm Calm - N/A   Clear
8:15 PM 21.2 °F - 6.8 °F 54% 30.52 in 10.0 mi Calm Calm - N/A   Clear
8:35 PM 21.2 °F - 8.6 °F 58% 30.52 in 10.0 mi Calm Calm - N/A   Clear
8:55 PM 21.2 °F - 6.8 °F 54% 30.53 in 10.0 mi Calm Calm - N/A   Clear
9:15 PM 21.2 °F - 8.6 °F 58% 30.53 in 10.0 mi Calm Calm - N/A   Clear
9:55 PM 17.6 °F - 8.6 °F 68% 30.53 in 10.0 mi Calm Calm - N/A   Clear
10:15 PM 15.8 °F - 6.8 °F 68% 30.53 in 10.0 mi Calm Calm - N/A   Clear
10:35 PM 15.8 °F - 6.8 °F 68% 30.53 in 10.0 mi Calm Calm - N/A   Clear
11:15 PM 17.6 °F - 6.8 °F 63% 30.53 in 7.0 mi Calm Calm - N/A   Clear
11:35 PM 15.8 °F - 6.8 °F 68% 30.54 in 10.0 mi Calm Calm - N/A   Clear
11:56 PM 12.2 °F - 3.2 °F 67% 30.53 in 10.0 mi Calm Calm - N/A   Clear